RH
45 44 44 43 42 41 41 40 39 38 38 37 36 36 35 34 34 33 32 31 30 31 31 29 29 29 28 27 25 24 23 22 21 20 20 20 20 21 20 20 19 18 17 16 16 15 14 14 14 14 13 13 12 12 12 11 11 11 11 11 11 11 12 13 14 15 16 15 14 14 14 13 12 12 11 11 10 10 9 9 8 7 7 6 6 5
43 42 42 41 41 40 39 38 37 37 36 35 35 34 34 33 32 32 31 30 29 29 29 28 29 28 26 25 24 23 22 21 21 20 20 20 19 19 18 17 16 15 15 15 16 15 14 14 13 13 13 13 13 12 12 11 11 12 12 12 12 13 14 14 15 15 15 15 14 13 12 11 11 10 10 9 9 8 8 7 6 6 5 5 5 4
42 41 41 40 39 38 37 37 36 36 35 34 34 33 33 32 31 30 29 29 28 27 27 27 28 29 26 24 24 23 22 21 20 20 19 19 18 17 16 15 15 15 15 16 17 16 16 15 14 13 13 12 12 13 13 13 14 14 15 15 15 15 14 14 14 14 14 13 12 11 10 10 9 8 8 7 7 6 6 6 5 5 4 4 4 4
41 41 40 39 38 37 36 36 35 35 34 33 32 31 31 30 29 28 29 29 28 26 26 26 27 29 26 23 23 22 21 20 19 18 18 18 17 17 16 16 17 17 16 16 16 15 15 14 14 13 14 15 15 16 17 17 17 17 17 16 16 15 14 13 12 12 12 11 11 10 9 8 7 7 6 6 5 5 5 5 4 4 4 4 4 4
41 39 38 37 36 36 35 34 34 33 33 31 30 30 29 28 28 27 27 27 27 26 24 24 26 28 26 22 21 20 18 17 17 16 16 17 17 17 17 17 17 17 16 15 14 14 14 14 16 17 19 21 22 22 21 20 19 18 16 15 14 13 12 11 10 10 9 9 9 8 7 6 6 5 5 5 4 4 5 4 4 4 5 5 4 5
39 38 36 36 35 34 34 33 32 31 31 30 29 29 27 27 26 26 25 25 26 26 24 23 23 25 24 22 20 17 16 15 15 15 15 16 17 17 17 17 16 16 15 15 15 16 17 19 21 22 23 23 23 22 20 19 18 16 15 13 12 11 10 9 8 8 7 7 6 6 5 5 5 5 4 4 4 4 5 5 5 5 5 6 5 5
37 36 35 34 33 32 31 31 31 30 29 29 28 27 26 26 25 25 24 23 23 23 22 21 19 20 21 21 18 15 14 14 14 15 15 16 16 16 15 15 16 17 19 20 22 23 23 24 23 22 21 19 18 17 16 15 14 12 12 10 10 9 8 7 6 6 5 5 5 4 5 4 4 4 4 4 4 5 5 5 5 5 6 6 6 6
35 34 33 33 32 31 31 29 29 28 27 26 26 25 24 24 23 23 22 21 20 19 18 17 16 16 18 20 18 15 15 15 15 15 15 15 15 17 18 20 21 23 25 27 28 28 26 24 22 20 18 16 15 13 12 12 10 10 9 8 8 7 6 6 5 5 5 5 5 4 4 4 4 4 4 4 4 5 5 5 5 5 6 6 6 6
32 32 32 31 30 29 28 26 26 25 24 24 23 23 22 22 21 20 19 18 17 17 17 16 16 17 19 20 17 16 16 16 17 18 18 21 23 27 29 29 29 29 29 29 28 27 25 23 20 18 16 14 12 11 10 10 9 8 8 7 7 7 6 6 5 6 5 5 5 5 5 4 4 4 4 5 5 5 5 5 5 5 6 6 6 6
31 30 29 27 27 26 25 24 23 23 22 22 21 21 19 19 18 17 17 17 18 19 19 19 18 17 17 17 15 16 19 21 25 28 29 32 33 34 34 32 30 28 27 26 24 22 20 18 16 14 13 11 10 10 8 8 8 7 7 7 7 6 6 6 5 6 5 5 5 5 5 5 5 5 5 5 5 5 6 6 6 5 6 6 6 7
27 26 26 26 26 26 25 24 22 21 20 19 19 18 18 18 18 19 19 20 21 21 20 18 19 18 17 18 19 23 28 32 34 35 36 36 34 32 30 26 23 21 20 19 17 15 14 12 12 10 10 9 9 9 8 7 7 7 7 7 7 7 6 6 6 6 6 6 6 6 6 5 5 5 5 6 6 6 6 6 6 6 6 7 7 8
28 28 28 28 27 26 24 23 20 19 18 18 18 18 20 21 21 21 20 20 21 22 22 24 27 30 29 28 28 31 34 34 33 31 30 28 26 23 20 17 15 14 14 13 12 12 11 11 11 10 9 9 8 8 8 8 7 7 7 7 7 7 7 7 7 7 7 7 7 7 7 6 6 6 6 6 6 7 7 6 7 7 7 7 7 8
29 28 27 25 24 22 22 22 21 20 20 21 21 20 20 20 19 19 21 22 27 33 35 36 38 38 35 31 28 27 25 22 21 19 18 16 15 14 13 12 11 11 10 10 10 10 10 10 10 9 9 8 8 8 7 7 7 7 7 7 7 7 7 7 7 7 7 7 7 7 7 6 6 6 6 6 6 7 7 7 7 7 7 7 7 8
24 23 23 22 22 22 22 23 23 22 21 20 19 18 18 19 21 23 26 29 33 37 38 36 32 28 24 20 18 15 13 11 11 10 10 10 10 9 10 9 9 9 9 8 9 8 9 9 8 8 8 8 8 8 7 7 7 7 7 7 7 7 7 7 7 7 7 7 7 7 7 7 7 7 6 7 7 7 7 7 7 6 6 6 6 7
21 20 21 22 23 23 22 21 20 18 19 20 21 25 27 29 30 29 28 26 25 25 24 21 18 15 11 10 10 8 8 7 6 6 6 6 7 7 7 8 8 8 8 8 9 9 8 9 8 9 8 8 9 8 8 8 7 7 7 7 7 7 8 8 8 8 8 8 8 8 8 7 7 7 7 7 7 7 7 6 6 6 6 6 6 6
24 22 22 22 21 20 20 20 23 27 30 33 35 35 35 32 28 25 21 17 14 13 12 12 12 11 8 8 8 7 7 7 6 6 6 6 6 7 6 7 8 8 8 8 8 8 8 8 8 8 8 8 9 9 9 8 8 8 8 8 8 8 8 8 8 9 9 9 9 9 8 8 7 7 7 7 6 6 7 6 6 6 6 6 6 6
24 22 20 21 22 25 30 35 38 40 40 38 35 31 27 22 17 15 12 11 9 9 10 11 12 11 8 8 9 9 8 8 8 7 7 7 7 7 6 7 7 7 7 7 7 7 7 7 7 7 7 7 7 8 8 8 8 8 9 9 9 9 9 9 9 9 9 9 9 9 8 8 7 7 7 7 7 7 7 6 6 6 6 6 6 6
23 27 29 33 39 41 43 44 41 37 32 27 22 18 15 12 10 9 9 9 9 9 10 11 12 11 8 7 8 9 8 8 8 8 7 7 7 6 6 5 5 5 5 5 5 5 5 5 5 5 5 5 6 6 6 7 7 7 8 9 9 10 10 10 10 10 10 10 9 9 8 8 7 7 7 7 7 7 7 7 6 6 6 6 6 6
36 43 46 45 45 42 37 33 27 23 19 16 14 13 11 10 10 10 10 9 9 9 9 9 12 13 9 7 7 8 8 7 7 7 7 6 6 6 5 5 5 5 4 4 4 4 5 5 5 5 5 4 4 5 5 5 5 5 6 7 7 8 9 9 10 10 11 11 11 10 10 9 9 8 8 7 8 8 8 8 7 7 7 6 7 7
46 46 43 38 32 27 23 20 17 16 15 14 14 14 13 12 12 13 12 11 11 10 10 9 12 16 13 9 9 8 7 8 8 7 7 7 6 6 5 5 5 5 5 5 5 5 5 5 5 5 5 4 4 4 4 4 4 4 4 5 5 5 6 7 7 8 9 9 10 11 11 12 12 11 11 10 9 9 9 8 7 7 7 7 7 7
37 32 27 24 21 18 18 17 17 17 17 17 17 16 15 14 14 14 14 13 13 12 12 9 11 16 16 13 13 12 9 10 11 11 10 9 9 9 8 7 6 6 6 7 7 7 7 7 7 6 5 4 4 4 5 5 5 5 5 4 4 5 5 6 6 6 7 7 8 8 9 10 11 12 13 12 11 11 10 9 8 7 8 7 7 7
23 20 19 18 19 19 20 20 20 20 19 18 18 17 16 15 14 14 13 13 13 13 12 10 10 16 20 20 20 16 12 13 15 14 14 13 14 13 12 11 11 11 11 11 11 10 9 10 10 9 7 6 6 6 6 6 6 5 5 5 5 5 5 5 6 6 6 6 6 7 7 8 8 9 11 12 12 12 11 9 8 8 7 8 8 7
19 19 21 22 23 22 21 21 20 19 19 18 18 16 15 14 13 13 12 12 12 12 12 11 11 16 24 32 31 22 16 18 21 21 20 18 17 16 15 15 16 17 18 17 14 12 11 11 13 12 11 9 8 8 8 7 7 7 6 7 6 6 6 6 6 6 6 6 6 6 7 7 8 8 8 9 11 12 12 11 9 8 8 8 8 8
22 22 22 22 22 22 21 20 20 21 21 21 20 19 17 16 15 15 15 14 13 13 14 14 13 16 29 41 39 28 23 26 28 29 27 23 20 18 17 18 19 21 22 19 16 14 12 13 13 13 13 12 10 10 9 9 8 8 8 8 7 7 6 6 6 6 6 6 6 6 6 7 8 8 8 8 8 9 11 13 11 9 8 8 8 8
22 21 21 20 19 19 18 18 19 21 24 24 24 22 20 19 19 19 19 17 15 14 16 17 15 17 30 41 37 30 29 31 32 33 31 27 23 20 19 20 21 22 21 19 18 17 15 14 14 14 14 13 12 11 11 10 9 9 9 8 7 7 6 6 6 6 6 6 6 6 6 6 7 7 8 7 8 8 9 11 12 11 9 8 8 8
21 20 20 19 19 18 17 18 19 21 25 28 28 27 25 23 24 26 24 21 18 15 17 21 20 20 29 35 31 29 30 30 30 30 29 26 25 23 22 21 21 21 19 18 18 17 16 15 14 15 14 14 13 12 11 10 9 9 9 7 7 6 6 6 5 5 5 5 6 6 5 6 6 6 7 7 7 8 8 9 11 12 11 9 8 8
21 21 22 23 26 26 24 26 28 30 32 33 32 31 31 31 31 31 29 26 23 18 19 25 27 25 27 29 27 26 28 27 27 26 24 23 22 21 21 20 19 18 17 17 16 15 14 14 14 14 14 13 13 12 11 10 9 9 8 6 6 6 5 5 5 5 5 5 6 6 5 6 6 6 6 7 7 7 8 8 9 11 12 10 8 8
24 25 27 30 34 35 33 33 36 37 37 37 35 33 34 35 35 33 31 29 26 21 23 28 29 27 26 25 24 24 25 25 24 22 20 19 19 17 17 17 16 15 15 14 14 13 12 12 12 12 12 12 12 11 10 10 9 8 7 6 6 6 5 5 5 5 5 5 5 5 5 6 6 6 6 6 7 7 7 8 8 9 11 11 10 8
30 31 32 35 38 38 36 35 37 38 39 40 38 35 35 36 37 36 33 31 29 26 27 28 27 26 24 23 23 23 22 22 20 19 17 16 16 15 14 13 12 12 12 12 11 11 10 10 10 10 10 10 9 9 9 9 8 8 8 7 6 6 5 5 4 4 4 5 5 5 5 5 5 6 6 6 6 6 7 7 7 8 9 11 11 9
35 34 34 35 36 37 35 35 37 38 39 39 37 36 37 38 40 39 35 31 29 28 28 28 27 26 24 23 22 20 20 19 18 16 15 14 13 12 11 11 10 10 9 9 9 9 8 8 8 8 8 8 7 7 7 7 7 7 7 7 6 6 6 5 4 4 4 4 4 4 4 5 4 5 5 5 6 6 6 7 7 7 7 9 11 11
33 33 32 31 32 33 33 33 35 37 38 38 36 37 39 40 39 37 32 27 26 27 26 26 25 24 22 21 20 18 17 16 15 14 12 11 11 10 10 9 8 8 8 7 7 7 7 7 7 6 6 6 6 6 6 5 5 5 5 6 6 5 5 5 4 4 4 4 4 3 4 4 4 4 4 4 5 5 6 6 7 7 7 8 10 11
31 30 30 29 29 30 30 30 32 33 35 36 36 35 35 34 31 29 27 24 25 25 24 23 22 20 19 18 16 15 13 12 12 11 10 10 9 8 8 7 6 6 5 5 5 5 5 5 5 5 4 4 4 4 4 4 4 4 4 4 5 4 4 4 4 4 4 4 4 3 3 3 3 4 4 4 5 5 6 6 7 7 7 7 9 10
30 29 29 27 27 28 28 28 28 29 30 31 31 29 28 27 25 23 22 21 23 23 21 20 18 16 15 14 12 11 10 9 10 9 9 8 7 6 6 5 5 4 4 4 4 3 4 4 3 3 3 3 3 3 3 3 3 3 3 3 3 3 3 4 4 4 4 4 4 3 3 3 3 3 4 4 4 5 5 6 6 6 6 7 8 9
29 29 29 28 27 26 26 26 26 26 26 26 25 24 24 24 24 22 20 19 20 22 20 18 16 14 12 11 10 9 8 8 8 8 8 7 6 6 5 5 5 4 4 4 3 3 3 3 3 3 3 3 3 3 3 3 3 3 3 3 2 3 3 3 3 3 3 3 3 3 3 3 3 3 3 4 4 5 5 6 6 6 6 6 7 8
28 28 28 28 27 26 25 24 23 22 22 22 22 22 24 25 26 23 21 19 19 18 17 14 12 11 10 9 8 8 7 7 7 8 9 8 7 6 5 5 4 4 4 3 3 3 3 3 2 2 2 2 2 2 2 2 3 3 3 3 3 2 2 2 2 2 2 3 3 3 3 3 3 3 3 3 4 4 5 5 5 5 5 6 7 8
27 26 27 27 27 25 23 22 21 19 19 20 21 21 23 23 23 19 16 15 14 13 11 9 8 8 8 8 7 7 7 6 7 8 8 7 6 5 4 4 3 3 3 2 2 2 2 2 2 2 2 2 2 2 2 2 2 2 2 3 2 2 2 2 2 2 2 2 2 3 3 3 3 3 3 3 4 4 4 5 5 5 5 5 7 8
25 26 25 24 24 24 21 20 19 17 16 17 17 18 20 21 20 17 14 12 12 11 10 9 8 8 7 7 7 6 6 6 5 6 6 5 5 4 3 3 3 3 3 2 2 3 2 2 2 2 2 2 2 2 2 2 2 2 2 2 2 2 2 2 2 2 2 2 2 2 3 3 3 3 3 3 3 4 4 4 4 5 5 5 7 7
24 24 24 23 22 23 21 18 18 16 15 16 16 18 21 22 21 18 15 13 13 13 12 10 9 8 7 6 6 5 4 4 4 4 4 3 3 4 3 3 3 3 3 3 2 2 2 2 2 2 2 2 2 2 2 2 2 2 2 2 2 2 2 2 2 2 2 2 2 2 2 2 3 3 3 3 3 3 4 4 4 4 5 6 7 7
22 21 22 22 20 21 21 20 19 19 18 19 19 18 20 21 19 17 15 14 14 12 11 10 8 7 6 5 4 4 3 3 3 3 3 3 3 3 3 3 3 3 3 3 2 2 2 2 2 2 2 2 2 2 2 2 2 2 2 2 2 2 2 2 2 2 2 2 2 2 2 2 2 3 3 3 3 3 4 4 4 4 5 6 6 7
21 19 19 20 20 21 22 20 20 21 21 23 22 20 20 20 20 18 15 12 11 9 8 7 6 5 5 4 4 4 3 3 3 2 3 2 2 2 3 2 2 2 2 2 2 2 2 2 2 2 2 2 2 2 2 2 2 2 2 2 2 2 2 2 2 2 2 2 2 2 2 2 2 2 3 3 3 3 3 3 4 4 5 5 6 7
21 19 19 19 19 21 23 21 20 22 24 27 26 24 23 22 19 16 12 9 8 7 6 6 5 5 4 4 3 3 3 3 3 2 2 2 2 2 3 2 2 2 2 2 2 2 2 2 2 2 2 2 2 2 2 2 2 2 2 2 2 2 2 2 2 2 2 2 2 2 2 2 2 2 2 2 3 3 3 3 3 4 4 5 6 6
22 19 19 19 19 21 23 22 22 24 27 29 29 26 24 21 16 13 11 9 8 7 6 6 5 5 4 4 3 3 3 3 3 3 3 3 3 3 3 3 2 2 2 2 2 2 2 2 2 3 2 2 2 2 2 2 2 2 2 2 2 2 2 2 2 2 2 2 2 2 2 2 2 2 2 2 2 3 3 3 3 4 4 4 5 5
25 22 20 21 21 21 23 24 26 28 29 31 29 25 22 21 18 14 12 11 9 8 7 6 5 4 4 3 3 3 3 3 3 3 3 3 3 3 3 3 2 2 2 3 3 3 3 3 3 3 2 2 2 2 2 2 2 2 2 2 2 2 2 2 2 2 2 2 2 2 2 2 2 2 2 2 2 2 3 3 3 3 4 4 5 5
29 26 23 23 24 24 26 29 30 32 35 37 34 28 25 24 21 17 14 12 10 8 6 5 4 4 3 3 3 3 3 3 3 3 3 3 3 3 3 3 3 3 3 3 3 3 3 3 3 3 3 2 2 2 2 2 2 2 2 2 2 2 2 2 2 2 2 2 2 2 2 2 2 2 2 2 2 2 2 3 3 3 4 4 4 4
31 29 28 28 29 32 34 34 33 34 39 41 37 30 26 22 18 14 12 10 8 6 5 4 3 3 3 2 2 2 2 3 3 3 3 3 3 3 3 3 3 3 4 4 3 3 3 3 3 3 3 2 2 2 2 2 2 2 2 2 2 2 2 2 2 2 2 2 2 2 2 2 2 2 2 2 2 2 2 3 3 3 3 3 3 4
34 33 33 33 33 33 34 34 32 32 34 33 29 25 22 17 12 9 8 6 5 4 3 3 3 2 2 2 2 2 3 3 3 3 3 3 3 3 3 3 4 4 4 3 3 3 3 3 3 3 3 3 2 2 2 2 2 2 2 2 2 2 2 2 2 2 2 2 2 2 2 2 2 2 2 2 2 2 2 2 3 3 3 3 3 3
37 34 33 32 30 29 28 28 28 28 28 24 20 17 15 12 8 6 5 4 3 3 3 3 3 2 2 2 2 2 3 3 3 3 3 3 3 3 3 4 4 4 3 3 3 3 3 3 3 3 3 3 3 2 2 2 2 2 2 2 2 2 2 2 2 2 2 2 2 2 2 2 2 2 2 2 2 2 2 2 3 3 3 3 3 3
36 33 30 28 27 26 26 26 26 25 22 18 13 10 8 7 5 4 4 3 3 3 3 3 3 3 3 3 3 3 3 3 3 3 3 3 3 3 4 4 4 3 3 3 3 3 3 3 3 2 3 3 3 3 3 2 2 2 2 2 2 2 2 2 2 2 2 2 2 2 2 2 2 2 2 2 2 2 2 3 3 3 3 3 3 3
35 33 29 25 24 24 23 22 20 17 14 11 9 8 7 5 4 3 3 3 3 3 3 3 3 3 3 3 3 3 3 3 3 3 3 3 4 4 4 4 4 3 3 3 3 3 3 3 3 2 3 3 3 3 3 2 2 2 2 2 2 2 2 2 2 2 2 2 2 2 2 2 2 2 2 2 2 2 3 3 3 3 3 3 3 4
35 33 28 23 21 21 20 19 18 15 11 9 9 9 8 6 4 3 4 3 3 3 3 3 3 3 3 3 3 3 3 3 3 3 4 3 4 4 4 4 4 4 4 3 3 3 3 3 3 3 3 3 3 3 3 2 2 2 2 2 2 2 2 2 2 2 2 2 2 2 2 2 2 2 2 2 2 2 3 3 3 3 3 3 4 4
34 31 25 21 21 22 22 21 20 18 14 10 10 11 9 6 4 4 4 4 3 3 3 3 3 3 3 3 3 3 3 3 3 3 4 4 4 4 4 4 4 4 4 3 3 3 3 3 3 3 3 3 3 3 3 3 2 2 2 2 2 2 2 2 2 2 2 2 2 2 2 2 2 2 2 2 2 3 3 3 3 3 3 4 4 4
Wind_Speed
26 28 30 32 34 36 38 40 41 43 44 45 47 49 50 51 53 57 58 59 60 59 62 65 65 69 74 75 75 77 78 78 78 79 80 80 80 79 79 81 82 83 83 85 87 88 88 88 88 88 88 89 90 90 90 89 88 88 89 88 88 87 87 88 88 89 90 91 92 93 93 94 95 95 95 95 95 96 97 97 98 98 97 96 96 95
30 32 34 36 38 39 41 43 45 47 48 50 51 52 54 56 56 59 61 62 63 63 64 68 68 72 78 79 79 80 80 80 80 81 82 82 82 82 83 84 85 86 85 87 89 90 90 90 90 91 91 91 91 92 92 92 91 91 91 91 90 90 90 90 91 92 93 94 95 96 96 97 97 97 97 97 97 97 97 98 98 98 97 95 94 93
35 36 38 40 42 43 45 47 49 51 53 53 54 56 58 60 60 62 65 66 68 68 67 69 70 74 80 82 82 82 82 82 82 83 84 84 85 86 88 88 88 89 89 89 91 92 92 92 93 93 93 93 93 93 94 94 93 93 94 94 94 94 94 94 94 94 95 96 97 98 98 98 98 98 98 98 97 96 96 96 97 96 95 93 92 91
39 40 42 44 45 47 48 50 52 55 57 58 58 60 61 64 64 64 66 68 71 73 72 71 71 75 80 83 84 84 84 84 83 84 85 86 87 88 90 91 91 92 92 92 93 93 93 94 94 94 95 95 95 95 96 97 97 97 98 98 98 98 98 98 97 97 97 98 98 99 99 99 98 98 97 97 96 94 94 94 94 93 93 92 90 89
42 44 46 47 49 51 52 54 55 57 61 63 63 64 65 67 68 68 68 69 72 75 77 74 73 76 81 83 86 87 85 85 86 86 86 87 88 89 90 92 93 94 95 96 96 95 95 95 96 96 97 98 99 99 100 101 102 102 102 102 101 101 101 101 100 99 98 98 98 98 98 97 97 96 96 95 94 92 92 92 92 91 91 90 89 88
46 48 50 51 53 55 56 58 59 60 63 66 67 69 70 70 72 73 73 72 73 76 79 78 75 77 82 84 86 87 86 85 87 88 88 88 88 89 90 92 94 95 96 97 98 98 98 99 99 99 100 100 101 102 102 103 103 104 104 103 103 102 102 101 100 99 97 97 96 96 96 96 95 94 94 93 92 91 90 90 90 89 89 89 88 87
50 51 53 55 57 58 60 61 63 64 66 68 70 71 72 73 74 75 76 76 76 77 79 80 79 79 82 86 87 87 86 86 87 88 89 90 90 91 92 93 95 96 97 98 99 100 101 102 102 103 103 103 103 103 103 103 103 103 103 103 103 102 101 100 99 97 96 95 95 95 94 94 94 93 92 91 90 90 89 89 88 88 88 87 87 85
53 55 57 59 61 62 64 65 66 67 68 70 71 73 74 75 77 77 78 79 79 80 81 82 83 82 84 88 89 88 88 89 90 90 91 92 93 94 95 96 97 98 99 100 101 103 104 105 105 105 106 105 105 104 103 103 103 102 102 101 101 101 100 99 98 97 95 94 93 93 93 93 92 91 91 90 89 89 88 88 87 87 86 86 85 84
57 59 61 62 64 66 67 68 70 70 71 72 73 75 76 77 78 79 80 81 82 83 84 85 86 86 87 91 91 88 90 92 93 94 95 95 97 98 99 100 101 102 103 103 104 105 106 107 107 107 107 106 106 105 104 103 102 101 101 100 100 99 99 98 97 96 94 93 93 93 93 92 91 90 89 89 88 88 88 87 87 86 85 85 84 83
61 62 64 65 67 69 71 72 73 73 73 74 75 77 79 79 80 81 82 83 85 86 88 89 90 90 90 93 92 89 90 93 94 96 97 99 100 101 103 104 104 104 105 105 106 106 106 106 106 106 105 105 104 103 103 102 101 101 100 100 99 99 98 97 96 94 93 93 92 93 92 91 90 89 88 88 87 87 87 87 86 85 84 84 83 82
64 66 67 68 70 72 74 75 76 76 77 77 78 79 80 82 83 84 85 86 87 89 91 92 93 94 94 95 95 93 93 94 96 98 99 101 103 104 105 105 105 105 105 105 105 104 104 104 104 103 103 102 102 101 101 101 100 100 100 99 99 99 98 96 95 94 93 93 93 93 92 91 90 88 88 87 87 87 87 86 85 84 84 83 82 80
68 69 70 71 73 74 76 78 80 80 80 81 81 81 82 83 84 85 87 88 89 91 93 93 94 97 98 98 98 98 98 99 99 99 100 102 103 103 104 104 104 103 103 103 103 102 102 101 101 101 101 100 100 100 100 100 99 99 98 98 98 98 97 96 95 94 93 92 92 92 92 91 90 88 87 87 86 87 86 86 85 84 84 82 81 79
71 72 73 74 75 77 78 80 82 83 84 84 85 85 85 85 85 85 86 86 87 90 93 94 96 98 100 100 100 100 100 100 99 99 99 99 100 100 100 101 100 100 100 100 100 100 99 99 99 98 98 99 98 98 98 97 97 96 96 95 95 95 95 95 94 93 92 91 91 90 90 90 89 88 87 86 86 86 86 86 85 84 83 81 80 79
72 73 74 76 77 79 80 81 83 84 85 85 86 86 87 87 86 86 86 86 87 90 93 96 97 98 98 98 99 98 97 97 96 96 96 95 95 95 95 95 96 96 96 96 97 97 97 96 96 96 96 96 96 96 95 94 94 93 92 92 91 91 92 91 91 90 90 90 89 89 88 88 87 87 86 85 85 86 86 86 85 84 82 81 79 78
74 74 75 76 78 80 82 83 84 85 85 86 86 88 89 90 91 91 91 91 90 91 93 94 95 96 93 92 94 93 92 92 90 90 90 90 90 90 90 90 90 90 91 91 92 92 93 93 93 93 93 93 92 92 92 91 91 90 89 88 87 87 87 87 87 87 86 86 86 86 86 86 85 85 84 84 84 84 84 84 84 83 81 79 78 77
77 78 78 79 80 82 84 85 86 88 89 90 91 93 94 95 95 95 95 94 92 91 91 90 91 94 93 90 91 91 90 90 88 87 87 87 87 87 86 85 85 85 85 86 86 87 87 88 88 89 89 89 89 89 89 88 87 87 86 85 85 84 83 83 82 82 82 82 83 83 83 83 83 82 82 81 81 82 82 82 82 81 79 78 77 76
77 80 81 81 83 84 86 89 91 92 94 95 96 96 97 96 94 93 92 91 90 88 88 87 88 91 91 88 88 89 87 87 87 87 86 85 85 85 84 84 83 83 83 83 83 84 84 84 85 85 85 85 85 85 85 85 84 84 83 82 82 81 81 81 80 79 79 79 79 80 81 81 81 80 80 79 79 80 80 80 80 79 78 77 76 74
77 80 83 83 85 88 90 92 94 95 96 96 95 95 94 93 91 90 89 87 87 85 84 83 84 89 90 86 85 85 84 84 84 84 83 83 83 83 83 82 82 82 82 82 82 82 82 82 83 83 83 83 82 82 81 81 80 80 79 78 77 76 76 77 77 77 77 76 77 78 78 79 79 79 78 78 78 78 78 78 78 76 76 75 74 73
79 81 85 87 88 90 91 93 93 94 94 93 93 92 91 90 87 87 87 87 87 86 83 80 80 85 89 86 85 85 83 82 82 83 83 82 82 82 81 81 81 81 81 81 80 81 81 81 82 82 81 80 80 79 79 78 78 77 76 75 75 74 73 73 73 72 73 73 74 75 76 77 77 77 77 76 76 76 76 77 76 75 75 74 73 72
83 84 87 89 90 90 89 89 89 89 90 90 90 90 90 89 86 85 87 88 88 89 87 81 77 82 87 87 86 86 84 84 85 85 85 85 85 85 84 83 82 82 83 83 82 82 82 82 82 82 81 79 78 78 78 77 77 76 75 74 74 73 73 72 71 70 70 70 70 70 71 72 73 74 74 75 74 74 75 77 76 74 74 73 73 72
85 85 85 86 86 86 85 85 86 86 87 88 89 89 89 88 86 85 86 88 89 90 90 85 78 80 87 89 88 88 87 87 88 88 88 89 89 89 88 87 86 86 87 87 87 86 86 86 87 86 83 80 78 78 79 78 77 77 76 75 74 74 73 72 71 70 70 70 69 69 68 67 67 68 70 72 73 74 75 76 75 74 73 72 72 72
82 81 80 80 81 82 82 83 84 86 87 89 90 90 89 88 87 85 84 85 87 89 90 88 82 81 87 90 90 91 90 89 90 91 90 91 92 92 92 92 91 92 92 92 92 91 90 90 91 91 88 86 84 84 83 82 81 80 79 78 77 76 74 72 71 70 70 70 69 68 68 67 66 65 65 67 70 72 75 76 76 75 73 72 71 71
77 76 76 77 79 82 83 83 84 85 87 89 91 92 90 88 87 87 86 86 86 88 89 89 86 83 84 88 90 92 94 93 94 95 94 94 95 95 95 95 95 96 97 97 97 95 95 94 95 95 94 93 92 91 89 88 87 86 85 84 82 80 78 75 73 72 71 70 69 68 67 68 68 67 65 65 66 68 72 75 76 76 74 72 71 71
76 76 75 76 77 79 81 82 82 83 85 87 89 91 90 89 87 88 89 89 89 89 90 90 89 85 82 84 88 93 96 95 96 96 97 97 97 98 98 98 98 99 100 101 101 100 100 99 99 99 99 98 97 96 95 94 92 91 91 90 87 84 82 79 76 74 73 73 71 69 66 66 68 68 67 66 66 66 67 71 75 76 75 73 71 71
77 78 77 77 78 77 76 75 75 77 80 83 86 89 90 89 89 89 90 92 92 92 91 91 91 87 81 82 88 93 95 94 94 95 97 98 98 99 99 100 100 101 101 102 103 104 104 103 103 103 102 102 102 101 100 98 97 96 96 94 91 88 84 81 78 76 75 74 73 71 67 66 66 67 67 67 67 67 65 66 70 75 75 73 71 71
77 78 78 79 81 82 80 78 78 78 78 81 83 85 87 89 89 90 91 93 95 94 91 91 93 89 82 83 88 91 93 94 94 96 97 97 98 99 100 101 102 102 103 103 104 105 105 105 105 105 105 105 105 104 103 101 100 100 99 96 93 90 87 83 80 78 77 76 75 73 69 67 66 66 66 66 67 68 67 65 66 71 75 74 72 71
73 74 75 75 78 82 82 80 81 81 80 81 82 82 83 85 86 87 89 91 94 96 91 88 91 90 86 87 89 91 92 94 96 98 99 99 99 99 101 102 103 103 103 104 105 106 106 106 106 106 106 106 106 106 105 104 102 102 100 98 96 94 90 87 83 81 79 78 77 75 71 69 68 66 66 66 66 67 67 66 65 67 71 75 74 71
70 70 71 70 72 76 77 76 76 77 77 79 82 82 80 81 82 84 86 88 93 95 92 88 89 90 90 90 91 91 93 96 98 100 102 101 101 102 103 104 104 104 104 105 105 106 106 105 105 105 105 106 106 106 106 105 104 103 102 100 98 96 93 90 86 84 82 80 78 77 74 72 70 68 67 66 65 65 65 65 64 64 67 72 75 73
69 68 67 65 65 69 72 71 71 72 74 76 80 81 80 79 80 82 84 87 90 93 92 91 91 92 93 93 93 93 95 98 100 103 104 104 104 105 106 106 106 105 105 105 105 106 105 105 104 104 104 104 105 105 104 104 103 103 103 102 100 97 95 91 88 85 83 81 80 77 75 73 71 70 68 67 65 65 64 63 63 62 63 67 73 74
66 66 65 61 59 63 67 66 67 69 71 74 77 79 80 79 80 82 84 86 89 90 91 92 92 93 94 95 96 97 98 100 102 105 106 106 105 106 107 107 106 106 105 105 105 105 105 104 103 102 102 102 101 101 101 101 100 100 100 100 100 98 96 92 88 85 83 81 80 77 74 73 72 70 70 69 66 65 64 63 62 62 62 63 69 73
64 63 62 59 55 58 61 61 62 66 69 73 75 77 78 78 79 80 83 85 86 87 89 90 92 93 94 95 96 97 99 100 102 105 106 105 105 105 106 106 105 104 103 102 102 102 102 101 99 98 97 97 96 96 96 96 95 94 93 93 94 94 94 91 88 85 83 81 79 76 73 72 71 71 71 70 68 66 65 64 63 63 62 62 65 70
63 62 61 59 55 55 58 58 58 62 66 70 73 75 77 79 79 81 83 85 85 86 88 90 92 93 95 96 97 97 98 99 100 103 105 104 104 103 103 102 101 99 97 95 93 92 92 92 92 91 90 89 88 88 88 89 89 87 85 84 86 87 88 87 86 84 83 81 80 77 74 72 70 70 70 70 68 67 66 65 64 63 63 62 63 67
64 63 63 63 58 56 58 58 57 60 64 68 72 75 78 80 81 82 82 83 83 86 88 90 92 94 96 98 99 98 98 97 98 100 102 103 102 100 98 97 95 94 92 91 89 88 87 87 87 87 86 85 84 83 83 83 84 83 79 77 77 78 80 81 80 80 80 79 78 77 75 73 70 69 69 69 68 67 66 65 65 64 63 62 62 65
66 66 66 67 65 62 61 61 59 60 64 68 72 76 79 82 84 85 84 83 84 87 90 92 93 95 97 99 100 100 99 98 97 98 100 102 103 101 99 97 96 95 93 92 90 89 88 86 85 83 82 81 80 80 80 81 82 81 79 77 75 74 74 74 74 75 75 75 75 74 73 72 70 69 68 67 66 65 65 65 65 64 64 62 61 64
71 71 71 72 71 69 67 67 65 63 65 70 73 75 79 82 85 86 85 85 86 89 91 92 93 94 95 97 98 99 99 98 97 97 99 101 102 102 100 98 96 94 92 90 88 86 85 84 82 79 78 76 76 76 76 76 76 76 77 76 76 74 74 73 72 71 70 70 70 69 69 69 68 67 66 65 64 64 63 64 64 63 63 61 61 63
76 77 76 76 76 75 72 72 73 70 69 72 74 75 78 82 85 86 85 84 87 90 92 93 93 94 95 96 96 97 97 96 94 94 96 97 98 97 97 95 93 91 88 85 84 82 81 80 78 75 73 71 70 70 70 70 70 69 70 72 73 72 72 72 72 70 68 66 65 65 65 65 65 64 63 63 62 62 61 62 62 62 61 59 59 61
81 82 81 79 79 80 78 76 76 75 72 73 75 77 81 85 89 92 91 90 91 95 97 98 98 98 98 98 97 96 94 92 89 88 89 90 91 90 90 90 89 88 85 82 80 79 78 77 75 73 71 69 67 66 66 65 64 63 64 65 67 67 67 68 68 66 64 63 61 61 60 60 60 59 59 59 59 59 59 58 59 59 57 56 57 59
83 84 85 84 82 84 84 81 81 81 79 78 79 79 83 88 91 94 95 95 96 98 100 101 101 100 99 98 95 93 90 86 83 82 82 82 82 82 81 81 82 82 81 79 77 75 74 73 73 71 70 68 66 64 63 61 61 60 60 60 61 61 62 64 64 62 60 57 56 55 55 55 55 54 54 55 56 57 56 55 55 55 53 53 55 58
84 84 86 86 84 86 87 86 86 88 86 86 85 83 84 88 92 95 96 96 95 97 98 99 98 97 97 96 94 92 90 86 83 82 81 80 79 78 78 77 78 78 77 77 75 72 69 69 69 68 68 67 64 62 61 59 57 57 57 57 57 57 59 61 61 58 55 53 52 52 51 51 51 51 51 52 53 54 53 52 52 51 51 52 54 57
86 86 87 88 87 87 89 87 87 90 91 92 92 90 89 91 94 97 98 97 95 95 96 97 98 97 97 97 96 95 94 93 90 87 85 84 82 81 81 80 79 78 77 75 73 70 68 67 66 65 65 64 62 61 60 58 57 55 54 54 54 54 56 59 58 55 52 50 50 50 50 50 50 49 49 50 51 53 52 51 50 49 49 51 54 56
90 90 90 91 89 89 91 90 90 92 94 95 96 96 96 96 97 99 100 101 100 101 101 101 101 101 101 100 99 97 96 94 92 89 86 85 83 81 81 80 78 77 76 73 71 68 66 65 64 63 62 61 59 58 57 57 57 55 53 52 51 51 52 54 54 53 50 48 48 48 48 50 51 49 48 49 50 51 51 50 49 49 49 51 53 55
96 94 93 94 93 93 94 94 93 94 96 97 99 100 101 102 104 105 106 106 107 107 107 106 105 104 103 102 99 96 93 91 89 87 85 83 81 79 77 77 75 74 73 72 70 68 65 63 62 61 60 58 55 54 54 54 55 55 54 52 52 51 50 49 49 50 48 46 46 47 47 48 50 50 49 48 47 48 49 49 49 49 49 50 51 53
102 100 98 98 97 96 96 97 98 99 101 103 105 105 106 108 111 112 112 111 110 110 109 107 105 104 102 99 95 91 89 87 85 83 81 80 78 76 74 73 72 71 70 70 68 67 65 62 60 58 57 55 52 50 50 50 51 52 53 52 52 51 50 48 47 47 46 45 45 45 46 47 48 49 48 46 45 46 47 48 48 48 49 50 50 51
106 106 104 103 102 102 102 102 102 104 107 110 111 111 111 111 112 112 111 110 108 106 105 103 100 98 96 94 90 86 84 83 80 79 77 76 74 73 71 70 70 69 69 68 66 65 63 60 57 56 56 54 52 50 49 48 48 49 51 51 51 50 49 48 46 45 43 42 41 42 43 45 46 46 46 45 44 45 46 47 47 47 48 49 49 49
109 110 109 108 108 108 108 106 103 103 106 109 109 108 107 105 104 103 103 102 100 99 97 96 93 90 88 86 83 80 79 78 76 74 74 72 70 69 68 68 68 68 66 66 64 61 59 56 55 53 53 54 53 51 50 49 48 47 49 50 50 49 48 47 45 43 41 40 39 39 40 42 44 44 44 44 44 44 45 46 46 46 47 48 48 47
112 112 111 110 108 107 105 102 98 96 97 99 100 101 101 100 98 97 96 95 94 92 90 89 88 85 82 80 77 75 75 74 72 71 71 69 67 66 66 66 66 66 65 64 62 59 57 55 54 52 52 52 52 52 51 51 49 48 47 48 48 47 46 44 43 41 39 38 38 37 38 40 42 43 43 43 42 43 44 44 44 44 45 46 45 44
112 111 109 107 105 103 101 98 95 93 93 96 96 96 97 95 92 91 91 89 88 86 84 83 82 80 78 76 74 71 71 71 69 67 66 65 64 64 64 64 63 63 63 62 60 58 57 57 54 52 50 51 52 52 52 52 51 49 47 45 45 44 43 42 40 39 37 36 37 36 36 38 40 42 42 41 40 41 41 41 41 43 43 43 42 41
113 112 109 106 103 103 101 99 97 93 90 91 91 90 90 88 84 84 84 84 82 81 78 76 76 76 74 72 70 67 66 66 65 63 62 62 62 62 62 62 62 62 61 60 59 57 57 56 54 51 50 50 51 53 53 52 51 48 46 44 42 41 40 38 37 36 36 35 35 35 35 36 38 39 39 38 38 38 38 38 40 41 40 39 39 38
116 115 113 108 105 103 99 97 96 92 87 87 89 91 92 90 86 84 84 83 81 79 75 73 72 73 72 70 67 64 63 63 63 62 62 61 61 61 61 61 61 61 59 58 58 57 55 54 52 50 49 50 51 52 53 52 50 47 44 42 40 38 37 36 35 34 34 34 34 34 34 34 35 36 36 35 35 35 35 36 37 37 36 36 35 35
119 118 116 112 108 106 103 102 103 102 99 96 98 100 101 98 93 90 88 84 81 79 76 72 69 68 70 71 68 65 62 62 61 61 61 61 60 59 60 60 59 58 57 57 57 56 55 52 51 51 50 50 50 50 51 50 49 45 42 39 38 36 34 33 32 32 32 32 31 31 32 32 33 33 33 33 32 33 33 33 34 33 33 32 32 32
119 119 119 117 116 114 111 109 110 111 109 106 105 106 106 103 99 95 92 87 83 81 78 74 69 66 66 68 68 65 62 60 60 59 59 60 59 58 57 57 56 54 54 55 55 54 52 51 50 50 51 50 50 49 49 48 47 44 41 39 37 35 33 32 31 30 29 29 29 29 29 29 30 30 30 30 30 30 31 31 30 30 29 29 30 31
Wind_Direction
292 292 292 292 292 292 293 293 294 294 294 294 295 296 296 296 297 297 297 298 298 299 299 298 299 298 296 296 296 297 297 298 299 298 298 299 299 300 299 298 297 296 297 297 296 296 295 295 296 296 296 296 296 297 297 297 297 296 295 294 294 294 293 293 293 293 293 293 293 293 293 293 293 293 294 294 294 294 294 293 293 293 293 293 293 294
292 292 292 292 293 293 294 294 295 295 295 295 295 297 297 296 297 297 296 297 297 297 298 298 299 298 296 297 297 297 297 298 298 298 298 299 299 299 298 296 296 296 297 297 296 296 296 296 296 296 296 297 297 297 296 296 296 295 295 294 294 293 293 293 293 293 293 294 294 294 294 294 294 294 294 294 294 294 294 294 293 293 294 294 294 294
292 292 293 293 294 294 295 296 296 296 295 295 296 296 296 295 296 297 297 298 297 296 297 297 299 298 297 297 297 297 297 298 298 299 299 299 299 299 298 298 298 298 297 297 296 296 297 297 296 296 296 296 296 296 295 295 295 295 294 294 294 294 294 294 294 294 294 294 294 294 294 294 294 294 294 294 294 294 294 294 294 294 294 294 294 295
293 293 293 294 294 295 295 295 296 297 296 295 295 296 296 296 296 296 297 298 298 297 296 297 298 298 296 296 296 296 296 297 298 299 299 299 299 299 299 299 299 298 297 296 296 296 296 296 296 296 296 296 295 295 295 295 295 295 295 295 295 295 295 295 295 294 294 294 294 294 294 294 294 294 294 294 294 294 294 294 294 294 295 295 295 295
292 293 293 293 294 294 295 295 295 296 297 297 297 296 296 296 296 296 296 296 297 297 297 297 298 298 296 296 296 296 297 298 298 298 297 297 298 298 298 298 297 297 296 296 296 296 295 295 296 296 296 296 296 296 296 296 296 296 296 296 295 295 295 295 295 295 294 294 294 294 294 294 294 293 293 294 294 294 294 294 295 295 295 296 296 296
292 293 294 294 294 294 295 296 296 296 297 298 298 298 298 297 297 297 297 296 297 297 296 296 297 296 296 296 295 295 296 297 297 296 296 297 297 297 296 296 295 295 295 296 296 296 296 296 296 295 295 295 295 295 295 295 295 295 295 295 295 295 295 295 294 294 294 294 294 294 294 294 294 294 294 294 295 295 295 295 295 296 296 296 296 296
293 293 294 294 295 296 296 297 297 297 297 297 297 298 298 298 298 297 297 297 297 296 296 296 295 295 295 295 294 294 295 295 295 295 296 297 296 296 295 295 294 295 295 295 295 296 296 295 295 295 295 294 294 294 294 294 294 295 295 295 295 295 294 294 294 294 295 295 295 294 294 294 294 295 295 295 296 296 296 296 296 296 296 296 296 296
293 294 295 296 297 297 297 297 297 297 297 297 297 298 298 298 298 298 298 298 297 297 296 296 296 296 296 296 295 296 297 297 297 297 297 297 297 296 296 295 295 295 295 295 295 295 295 295 295 295 295 295 295 295 295 295 294 295 295 295 295 295 295 295 295 296 296 296 295 295 295 294 295 295 296 296 296 296 296 296 296 296 296 296 296 297
296 297 298 298 298 298 298 298 298 298 298 298 298 298 298 298 298 298 298 298 298 298 298 298 297 298 297 296 296 297 298 299 299 299 298 297 297 296 296 295 295 295 295 295 295 295 295 295 295 295 295 295 295 295 295 295 295 295 295 295 295 295 295 295 295 296 296 296 296 295 295 294 295 296 296 296 296 296 296 296 296 296 296 296 297 297
298 298 298 299 300 300 300 300 299 299 299 299 299 299 299 298 299 299 299 300 300 300 299 299 299 298 297 296 296 298 298 298 298 297 296 296 295 295 295 295 294 294 294 294 294 294 293 293 294 294 294 294 294 294 294 294 295 295 295 295 295 295 295 295 295 296 296 296 295 295 295 295 296 296 296 296 296 296 296 295 295 296 296 296 297 298
300 301 301 302 302 302 301 301 300 300 299 299 299 299 299 300 300 300 301 301 301 300 300 300 299 299 298 297 298 298 297 296 295 295 295 294 294 294 294 293 293 293 293 293 292 292 293 293 293 293 293 293 294 294 294 294 294 295 295 295 295 295 295 295 296 296 296 296 296 295 295 296 296 296 296 296 296 295 295 295 296 296 296 297 298 298
303 304 303 303 302 302 301 301 300 300 300 300 300 300 300 299 299 299 300 300 300 299 299 299 298 298 297 297 297 297 296 295 294 294 293 293 293 292 292 292 293 293 293 293 293 293 293 293 293 293 293 294 294 294 294 294 295 295 295 295 295 295 296 296 296 296 296 296 295 295 295 295 296 296 296 295 295 295 295 295 296 296 296 297 297 297
303 303 303 302 302 301 301 301 301 301 301 301 301 300 299 298 298 297 297 297 297 297 297 297 296 295 295 296 295 295 294 294 294 293 293 293 293 293 293 293 293 293 293 293 293 293 292 292 292 292 293 293 293 293 293 293 294 294 294 294 294 294 295 295 295 295 295 295 294 294 295 295 295 295 295 295 295 295 295 295 295 295 296 296 296 295
301 302 302 302 302 301 301 300 299 299 299 299 299 298 298 297 297 297 296 296 296 295 295 295 295 294 294 294 294 294 294 293 294 294 294 293 293 292 292 292 292 292 291 291 291 291 291 291 291 292 292 292 292 292 292 292 292 292 292 292 292 293 293 293 294 294 294 294 294 294 294 294 295 295 295 295 295 294 294 295 295 295 295 295 295 295
301 301 301 300 300 300 299 299 299 299 299 299 299 299 299 299 299 299 298 298 297 297 296 296 296 295 294 294 295 295 294 294 293 293 292 292 291 291 291 290 290 290 290 290 290 290 290 290 291 291 291 291 291 291 291 292 292 292 292 292 292 292 292 292 292 293 293 293 293 293 293 294 294 294 294 294 294 294 294 294 294 294 295 295 295 295
302 301 301 301 300 300 300 301 301 301 301 301 301 301 300 300 300 300 300 300 300 300 300 301 301 300 299 299 299 299 298 298 297 295 294 294 293 293 292 292 291 290 290 289 289 289 289 289 289 289 289 290 290 290 291 292 292 292 292 293 292 292 292 291 292 292 292 293 293 293 293 293 293 293 293 293 293 293 293 293 293 294 295 295 296 296
302 302 302 303 303 303 303 303 303 303 302 302 302 301 301 301 301 301 302 303 303 303 304 304 304 302 301 302 303 302 302 301 301 300 299 297 296 295 294 293 292 291 290 290 290 289 289 288 288 288 288 289 289 289 290 291 291 292 292 292 292 292 292 292 292 291 291 292 292 292 292 292 293 293 293 293 293 293 293 293 293 294 295 295 296 296
303 303 304 304 304 304 304 303 303 303 302 302 302 302 302 302 304 304 305 304 304 304 304 305 306 304 302 303 303 303 303 302 302 301 299 298 297 296 295 295 294 294 293 293 292 292 291 291 290 290 289 288 288 288 288 288 288 289 289 289 290 290 290 291 291 292 292 292 292 292 292 292 292 292 293 293 293 293 293 293 294 295 295 296 296 296
305 304 304 304 304 304 303 303 303 303 303 304 304 304 304 305 306 307 307 306 306 305 304 306 307 306 304 304 304 303 303 303 302 302 302 301 300 300 299 299 299 299 298 298 297 297 296 296 295 294 293 292 292 291 290 289 288 287 286 286 286 286 286 287 287 288 290 291 292 293 293 293 293 293 293 293 294 294 294 294 295 296 296 296 296 296
306 305 305 305 305 305 305 305 305 306 306 306 306 306 307 307 309 310 309 308 308 307 306 306 309 309 308 306 306 306 306 306 306 306 306 306 306 306 305 305 305 305 304 303 302 302 301 301 300 299 298 297 296 296 295 294 293 291 289 287 286 286 286 285 285 285 285 286 287 289 290 291 292 293 294 294 295 295 295 295 295 296 296 296 296 296
306 307 306 307 307 307 307 308 308 308 308 308 307 307 308 309 310 311 310 310 309 308 307 307 310 313 311 310 310 310 310 310 310 309 309 310 310 310 310 310 309 309 308 307 306 305 305 305 304 303 302 301 300 300 299 298 297 296 294 292 291 290 289 287 286 285 284 283 283 284 285 287 288 290 292 294 295 295 295 295 296 296 296 296 296 296
308 308 309 309 309 309 309 309 310 310 310 309 309 309 309 310 311 311 310 309 309 309 309 310 313 316 315 313 313 312 312 312 311 310 310 311 310 310 310 310 310 309 308 307 306 306 307 306 305 305 305 304 304 303 302 301 300 299 298 297 295 294 292 291 289 287 285 284 284 285 286 286 287 287 289 291 293 295 295 296 296 296 296 296 296 297
310 310 310 311 311 311 311 311 312 312 311 311 311 310 311 312 313 313 311 310 310 311 312 314 315 317 316 313 312 313 313 312 311 311 311 310 310 310 310 309 308 307 306 306 306 307 307 306 305 305 305 305 304 304 303 302 301 301 300 299 298 297 295 294 292 290 288 287 286 286 287 288 289 288 288 289 290 293 294 295 295 295 296 296 296 296
311 311 311 311 311 311 312 313 314 314 314 313 313 312 313 314 315 314 313 313 313 314 314 315 316 317 316 311 310 311 311 310 309 308 308 308 308 309 308 307 306 305 304 305 306 306 306 305 304 304 304 304 303 303 303 302 302 301 300 299 298 297 296 295 294 292 291 289 288 287 287 288 288 289 289 288 289 290 291 293 294 294 295 295 295 296
313 313 313 313 312 310 310 311 312 313 314 314 313 314 315 316 316 315 315 315 315 315 316 316 316 316 314 308 307 308 307 306 305 304 304 304 305 306 306 305 303 302 303 303 304 303 303 303 303 302 302 302 302 302 301 301 301 300 299 298 297 297 296 295 294 293 292 290 289 288 287 287 287 288 288 288 288 288 288 290 291 292 293 294 294 295
315 315 316 316 315 313 314 315 315 316 316 315 314 315 316 317 317 315 315 315 314 315 316 315 313 314 311 306 305 305 303 302 301 300 300 301 302 302 302 301 300 300 301 301 300 300 300 300 300 300 300 300 299 299 299 299 299 298 297 297 297 297 296 295 294 293 292 290 290 289 288 287 286 286 286 286 287 287 288 288 289 290 291 292 293 294
317 317 318 320 319 319 320 322 321 320 318 316 315 316 316 316 314 313 313 313 312 313 314 312 310 309 307 304 303 303 301 300 300 299 299 300 300 299 299 298 298 298 298 298 297 297 297 297 297 297 297 297 297 296 296 297 297 296 296 296 296 296 296 295 294 293 292 291 290 290 289 287 286 285 285 285 285 286 287 287 287 288 289 291 293 293
319 321 322 324 322 320 321 322 320 319 317 315 315 315 314 313 311 311 311 310 310 312 312 310 307 306 305 304 303 302 301 300 300 299 300 300 300 299 298 297 297 297 296 296 296 296 296 295 295 295 295 295 294 294 294 295 295 295 296 296 296 295 295 295 294 293 292 291 290 289 288 288 286 285 284 283 283 284 284 285 286 286 287 289 290 292
322 323 323 324 322 319 320 320 319 317 316 314 314 313 313 312 311 310 310 310 310 310 310 309 307 306 306 305 304 303 302 301 301 300 301 301 300 299 299 298 298 297 297 296 295 295 294 294 294 294 293 293 293 293 293 293 293 293 293 294 294 295 295 294 294 293 292 291 290 289 288 287 286 285 284 283 282 283 283 283 284 284 284 285 287 289
322 322 321 322 321 318 318 319 318 317 315 313 313 313 313 313 313 312 311 310 310 309 309 308 307 307 306 305 305 304 303 302 301 301 301 301 300 299 299 298 298 298 297 297 296 296 295 295 294 294 293 293 292 292 292 292 291 291 291 291 292 292 293 293 293 292 291 290 289 288 287 286 285 285 284 283 283 283 283 283 283 283 282 282 284 287
321 321 320 320 320 318 317 318 318 317 316 315 314 314 314 314 313 311 309 309 309 309 308 307 307 306 306 305 304 303 303 302 301 301 301 300 300 299 299 298 298 298 297 297 296 296 296 295 295 294 294 293 293 292 292 291 291 290 290 290 290 290 290 291 292 291 290 290 289 288 287 285 284 284 284 284 283 283 283 283 283 283 282 281 281 283
324 324 322 320 320 319 317 318 318 317 317 317 316 314 313 312 310 310 309 310 310 310 308 307 306 306 305 304 303 302 302 302 301 301 301 300 300 299 299 299 299 299 299 298 298 297 297 297 297 296 295 295 294 293 292 291 290 290 289 288 288 288 288 288 289 289 288 288 288 287 286 285 284 283 283 283 283 283 283 283 283 282 282 281 280 280
328 327 325 322 322 321 319 319 320 319 318 316 315 313 312 311 311 310 310 311 311 310 309 307 306 306 305 304 304 304 303 303 303 302 302 302 301 302 302 303 304 304 304 304 304 303 302 301 300 299 298 297 296 295 294 293 292 291 290 288 286 285 285 285 285 285 285 285 285 285 285 284 284 283 282 281 282 282 282 282 282 281 281 280 279 278
333 332 330 327 325 324 323 321 322 321 319 317 316 315 315 315 314 313 313 313 313 312 310 309 308 308 307 307 306 306 306 307 307 306 306 306 306 307 308 308 308 307 307 307 306 305 304 302 301 300 299 298 298 297 295 293 292 292 291 290 288 286 284 283 282 281 281 282 283 283 283 283 283 282 281 281 281 281 281 281 280 280 280 279 278 277
338 336 335 332 329 328 326 324 323 323 322 321 320 320 320 319 317 315 315 315 314 312 310 309 309 308 308 308 308 309 310 310 311 310 308 308 308 308 309 308 308 307 306 306 305 305 304 303 303 302 301 300 299 297 295 294 293 292 292 291 289 288 286 285 284 282 282 282 282 282 282 281 281 281 281 281 280 280 279 279 279 278 278 278 278 276
341 340 338 336 332 330 328 327 326 326 326 325 323 322 320 318 315 313 313 314 313 311 310 310 310 311 311 311 312 312 312 312 312 310 308 307 307 307 308 308 307 306 307 307 307 307 307 306 306 305 304 302 300 298 296 294 293 292 291 290 288 288 287 286 286 285 285 284 283 282 281 280 280 280 280 280 279 278 277 276 277 277 277 277 276 275
343 342 339 337 335 332 330 329 328 327 326 325 323 323 322 320 318 317 317 317 317 315 315 315 315 315 315 314 314 313 312 312 311 309 307 307 307 307 307 307 307 308 309 310 310 309 309 309 309 308 307 305 303 301 298 297 295 293 291 289 289 289 288 286 286 285 284 283 283 281 280 279 279 279 279 278 277 276 275 274 275 275 276 275 274 273
344 343 341 339 337 334 332 332 330 328 328 327 326 326 326 324 322 321 321 321 321 319 318 317 317 316 315 314 313 313 313 313 313 311 310 309 308 308 307 307 308 309 310 310 310 311 311 311 311 310 309 308 306 305 303 301 299 297 295 292 291 289 288 286 284 284 284 284 283 281 279 278 277 276 274 273 272 272 272 271 272 273 273 272 271 271
344 343 341 340 339 337 335 335 334 332 332 331 329 328 328 326 324 323 322 322 321 319 317 316 316 316 315 315 316 316 317 318 318 317 316 314 313 313 312 312 312 312 312 312 314 315 315 314 313 312 311 310 309 309 307 305 302 300 298 295 292 291 289 286 286 287 287 286 284 281 278 275 272 270 268 268 268 268 267 267 268 268 268 267 267 268
345 344 342 341 341 339 337 336 336 334 334 333 331 330 330 329 327 325 322 321 320 318 318 318 318 319 319 319 320 321 322 322 323 323 321 320 320 319 318 317 317 316 316 316 317 317 317 315 314 312 311 311 311 310 309 307 304 301 298 295 293 291 289 288 288 289 287 284 281 280 277 274 270 267 264 264 264 264 264 264 264 263 263 263 264 266
346 345 344 342 342 341 339 338 338 337 336 335 334 333 333 331 328 325 323 322 323 322 323 323 323 323 323 323 323 324 324 324 324 324 324 323 322 321 320 319 319 318 318 318 318 318 318 317 315 314 313 313 312 312 310 308 306 303 299 296 294 290 287 286 287 286 283 281 279 277 276 274 272 269 265 261 261 261 262 263 262 261 260 260 262 265
346 346 346 344 343 343 341 339 339 338 337 337 336 335 335 332 329 327 326 326 327 326 326 326 325 325 324 324 325 325 325 324 324 324 324 322 321 320 319 318 318 318 318 319 319 319 319 318 318 316 315 315 314 314 312 309 307 306 304 301 297 293 290 287 285 283 281 279 277 275 274 274 273 272 269 265 263 262 262 263 261 260 259 260 262 265
347 347 347 346 344 343 342 341 342 341 340 339 338 337 336 335 332 330 329 328 328 327 327 326 325 324 323 323 325 325 325 324 324 323 322 320 320 319 319 319 319 319 320 320 320 319 320 320 319 318 317 316 317 316 314 312 310 308 306 304 301 298 295 291 287 284 282 280 277 276 275 274 273 273 271 269 266 264 262 262 261 260 260 261 263 266
347 347 348 347 346 345 344 344 345 344 343 342 340 339 338 336 333 330 328 327 327 326 325 324 324 323 322 323 325 325 324 323 323 322 320 319 319 320 320 320 320 320 320 319 319 319 320 320 319 318 318 319 320 319 318 316 314 311 308 305 303 301 298 295 292 289 286 283 280 278 276 274 272 271 271 269 267 264 263 263 262 261 261 263 265 268
348 348 348 348 347 347 346 346 346 346 344 342 340 338 335 333 329 326 325 324 324 324 323 322 322 322 322 323 324 325 323 323 322 321 320 320 321 321 322 321 321 320 319 317 317 319 320 318 318 319 321 322 323 324 323 321 318 314 310 306 305 303 301 299 296 293 289 286 282 278 275 273 272 271 270 269 268 266 265 266 265 264 263 265 267 270
348 348 348 348 347 346 345 345 345 345 342 339 337 335 332 329 327 324 324 324 324 324 323 323 322 323 323 324 325 325 324 323 323 322 321 322 323 323 323 322 320 319 317 317 319 321 321 321 321 323 325 327 327 327 326 324 321 317 313 309 307 305 303 301 298 294 291 286 282 278 275 273 272 271 271 271 270 269 268 268 268 267 266 267 269 272
347 347 348 348 346 345 344 343 343 344 342 338 335 332 330 327 326 325 325 325 325 325 325 324 324 324 324 325 327 327 325 324 323 323 322 323 324 323 322 321 319 318 318 320 322 323 324 324 326 328 330 330 330 329 328 326 323 320 317 313 310 307 304 302 298 295 291 287 283 280 277 274 273 273 273 273 273 272 271 271 269 268 268 270 272 275
346 346 347 347 346 345 345 343 342 342 341 336 332 329 327 325 325 327 327 328 327 326 326 326 325 325 325 326 328 328 326 324 324 324 324 324 324 324 322 321 319 320 321 323 324 324 325 326 328 330 332 333 332 331 328 325 323 321 319 316 313 310 306 303 300 296 292 288 284 282 279 276 275 275 275 276 276 275 274 271 270 270 272 273 275 276
346 346 346 346 346 346 345 342 339 338 337 335 333 332 330 329 330 332 332 332 330 329 329 329 328 327 327 328 329 330 328 327 327 327 326 325 325 324 323 322 321 323 324 325 325 325 326 328 330 332 334 335 333 331 327 324 322 321 320 318 315 311 307 303 300 296 293 289 287 284 282 280 279 278 278 278 278 276 274 271 272 273 275 276 277 277
346 346 345 346 346 346 345 344 341 340 339 339 339 337 335 334 335 336 335 335 333 331 331 332 331 329 329 330 331 332 331 330 329 328 326 326 326 325 324 323 324 325 325 325 325 326 328 331 333 335 336 335 333 331 327 323 322 321 321 318 315 312 307 303 300 297 294 292 290 287 286 284 283 282 282 281 279 277 275 275 276 276 277 278 278 278
346 346 346 346 347 347 347 346 345 343 342 342 341 340 337 335 336 337 337 336 335 333 333 334 333 332 332 332 332 333 333 331 329 328 327 326 326 326 325 323 325 326 326 325 326 327 330 333 336 337 336 334 333 331 328 324 322 322 322 320 316 312 308 304 301 298 296 295 293 290 289 288 288 287 286 284 282 281 280 279 279 280 280 280 279 279